TimeCDT,TemperatureF,Dew PointF,Humidity,Sea Level PressureIn,VisibilityMPH,Wind Direction,Wind SpeedMPH,Gust SpeedMPH,PrecipitationIn,Events,Conditions,WindDirDegrees,DateUTC
12:15 AM,32.0,23.0,69,29.93,10.0,WNW,10.4,-,N/A,,Clear,300,2013-04-20 05:15:00
12:35 AM,32.0,23.0,69,29.94,10.0,NW,8.1,18.4,N/A,,Clear,310,2013-04-20 05:35:00
12:55 AM,32.0,23.0,69,29.95,10.0,NW,9.2,-,N/A,,Scattered Clouds,320,2013-04-20 05:55:00
1:35 AM,30.2,23.0,75,29.96,10.0,WNW,6.9,-,N/A,,Scattered Clouds,290,2013-04-20 06:35:00
1:55 AM,30.2,23.0,75,29.97,10.0,WNW,8.1,-,N/A,,Scattered Clouds,290,2013-04-20 06:55:00
2:15 AM,30.2,23.0,75,29.98,10.0,WNW,9.2,-,N/A,,Clear,300,2013-04-20 07:15:00
2:35 AM,30.2,21.2,69,29.98,10.0,WNW,8.1,-,N/A,,Clear,300,2013-04-20 07:35:00
2:55 AM,30.2,21.2,69,29.99,10.0,WNW,8.1,-,N/A,,Clear,300,2013-04-20 07:55:00
3:15 AM,30.2,21.2,69,30.00,10.0,West,8.1,-,N/A,,Clear,280,2013-04-20 08:15:00
3:35 AM,30.2,21.2,69,30.01,10.0,WNW,8.1,-,N/A,,Clear,290,2013-04-20 08:35:00
3:55 AM,30.2,21.2,69,30.02,10.0,WNW,8.1,-,N/A,,Clear,290,2013-04-20 08:55:00
4:15 AM,30.2,21.2,69,30.03,10.0,NW,8.1,-,N/A,,Clear,310,2013-04-20 09:15:00
4:35 AM,28.4,21.2,74,30.03,10.0,NW,5.8,-,N/A,,Clear,310,2013-04-20 09:35:00
4:55 AM,28.4,21.2,74,30.04,10.0,WNW,6.9,-,N/A,,Clear,290,2013-04-20 09:55:00
5:15 AM,28.4,21.2,74,30.05,10.0,WNW,6.9,-,N/A,,Clear,290,2013-04-20 10:15:00
5:35 AM,28.4,21.2,74,30.06,10.0,WNW,8.1,-,N/A,,Clear,290,2013-04-20 10:35:00
5:55 AM,28.4,21.2,74,30.07,10.0,WNW,6.9,-,N/A,,Clear,290,2013-04-20 10:55:00
6:15 AM,28.4,19.4,69,30.08,10.0,WNW,5.8,-,N/A,,Clear,300,2013-04-20 11:15:00
6:35 AM,28.4,19.4,69,30.10,10.0,West,6.9,-,N/A,,Clear,280,2013-04-20 11:35:00
6:55 AM,30.2,21.2,69,30.10,10.0,WNW,6.9,-,N/A,,Clear,290,2013-04-20 11:55:00
7:15 AM,30.2,21.2,69,30.12,10.0,WNW,5.8,-,N/A,,Clear,300,2013-04-20 12:15:00
7:35 AM,32.0,19.4,60,30.13,10.0,NW,5.8,-,N/A,,Clear,310,2013-04-20 12:35:00
7:55 AM,32.0,19.4,60,30.14,10.0,NNW,6.9,-,N/A,,Clear,330,2013-04-20 12:55:00
8:15 AM,32.0,15.8,51,30.15,10.0,NNW,8.1,-,N/A,,Clear,340,2013-04-20 13:15:00
8:35 AM,32.0,14.0,48,30.16,10.0,NNW,4.6,-,N/A,,Clear,330,2013-04-20 13:35:00
8:55 AM,33.8,14.0,44,30.17,10.0,NNW,8.1,-,N/A,,Clear,340,2013-04-20 13:55:00
9:15 AM,33.8,15.8,48,30.18,10.0,NW,9.2,-,N/A,,Clear,320,2013-04-20 14:15:00
9:35 AM,33.8,15.8,48,30.19,10.0,NW,4.6,-,N/A,,Clear,310,2013-04-20 14:35:00
9:55 AM,35.6,17.6,48,30.20,10.0,WNW,6.9,-,N/A,,Clear,300,2013-04-20 14:55:00
10:15 AM,35.6,15.8,44,30.21,10.0,West,4.6,-,N/A,,Clear,280,2013-04-20 15:15:00
10:35 AM,35.6,12.2,38,30.22,10.0,WNW,5.8,-,N/A,,Clear,300,2013-04-20 15:35:00
10:55 AM,35.6,14.0,41,30.23,10.0,West,5.8,9.2,N/A,,Clear,270,2013-04-20 15:55:00
11:15 AM,35.6,14.0,41,30.23,10.0,NW,6.9,-,N/A,,Mostly Cloudy,310,2013-04-20 16:15:00
11:35 AM,37.4,15.8,41,30.23,10.0,West,13.8,17.3,N/A,,Mostly Cloudy,260,2013-04-20 16:35:00
11:55 AM,37.4,14.0,38,30.24,10.0,NW,8.1,16.1,N/A,,Scattered Clouds,320,2013-04-20 16:55:00
12:15 PM,37.4,15.8,41,30.24,10.0,WNW,8.1,-,N/A,,Mostly Cloudy,290,2013-04-20 17:15:00
12:35 PM,39.2,14.0,36,30.24,10.0,West,4.6,-,N/A,,Overcast,280,2013-04-20 17:35:00
12:55 PM,39.2,14.0,36,30.24,10.0,NW,4.6,-,N/A,,Mostly Cloudy,320,2013-04-20 17:55:00
1:15 PM,41.0,14.0,33,30.24,10.0,West,6.9,-,N/A,,Mostly Cloudy,280,2013-04-20 18:15:00
1:35 PM,41.0,15.8,36,30.25,10.0,WNW,4.6,13.8,N/A,,Mostly Cloudy,300,2013-04-20 18:35:00
1:55 PM,41.0,15.8,36,30.25,10.0,West,4.6,16.1,N/A,,Mostly Cloudy,270,2013-04-20 18:55:00
2:15 PM,42.8,15.8,34,30.25,10.0,West,11.5,16.1,N/A,,Mostly Cloudy,260,2013-04-20 19:15:00
2:35 PM,41.0,14.0,33,30.25,10.0,WSW,4.6,9.2,N/A,,Overcast,240,2013-04-20 19:35:00
2:55 PM,42.8,15.8,34,30.26,10.0,West,10.4,16.1,N/A,,Overcast,260,2013-04-20 19:55:00
3:15 PM,42.8,15.8,34,30.26,10.0,WSW,9.2,-,N/A,,Overcast,240,2013-04-20 20:15:00
3:35 PM,42.8,15.8,34,30.26,10.0,West,10.4,-,N/A,,Overcast,270,2013-04-20 20:35:00
3:55 PM,42.8,15.8,34,30.26,10.0,Calm,Calm,-,N/A,,Mostly Cloudy,0,2013-04-20 20:55:00
4:15 PM,41.0,14.0,33,30.26,10.0,Calm,Calm,-,N/A,,Mostly Cloudy,0,2013-04-20 21:15:00
4:35 PM,42.8,14.0,31,30.27,10.0,West,5.8,-,N/A,,Mostly Cloudy,270,2013-04-20 21:35:00
4:55 PM,42.8,15.8,34,30.27,10.0,WNW,4.6,-,N/A,,Scattered Clouds,300,2013-04-20 21:55:00
5:15 PM,44.6,15.8,31,30.27,10.0,West,5.8,-,N/A,,Clear,270,2013-04-20 22:15:00
5:35 PM,42.8,15.8,34,30.27,10.0,WNW,3.5,-,N/A,,Clear,300,2013-04-20 22:35:00
5:55 PM,41.0,14.0,33,30.27,10.0,Calm,Calm,-,N/A,,Clear,0,2013-04-20 22:55:00
6:15 PM,41.0,15.8,36,30.27,10.0,Calm,Calm,-,N/A,,Clear,0,2013-04-20 23:15:00
6:35 PM,42.8,17.6,36,30.27,10.0,Calm,Calm,-,N/A,,Clear,0,2013-04-20 23:35:00
6:55 PM,41.0,15.8,36,30.28,10.0,Calm,Calm,-,N/A,,Clear,0,2013-04-20 23:55:00
7:15 PM,41.0,14.0,33,30.28,10.0,Calm,Calm,-,N/A,,Clear,0,2013-04-21 00:15:00
7:35 PM,41.0,14.0,33,30.29,10.0,Calm,Calm,-,N/A,,Clear,0,2013-04-21 00:35:00
7:55 PM,41.0,17.6,39,30.30,10.0,SE,3.5,-,N/A,,Clear,140,2013-04-21 00:55:00
8:15 PM,41.0,17.6,39,30.31,10.0,South,3.5,-,N/A,,Clear,170,2013-04-21 01:15:00
8:35 PM,39.2,17.6,42,30.32,10.0,SSE,4.6,-,N/A,,Clear,160,2013-04-21 01:35:00
8:55 PM,37.4,19.4,48,30.33,10.0,SSE,4.6,-,N/A,,Clear,150,2013-04-21 01:55:00
9:15 PM,37.4,19.4,48,30.34,10.0,SSE,6.9,-,N/A,,Clear,150,2013-04-21 02:15:00
9:35 PM,37.4,17.6,45,30.35,10.0,SE,6.9,-,N/A,,Clear,140,2013-04-21 02:35:00
9:55 PM,37.4,15.8,41,30.35,10.0,ESE,6.9,-,N/A,,Clear,110,2013-04-21 02:55:00
10:15 PM,37.4,17.6,45,30.35,10.0,ESE,8.1,-,N/A,,Clear,120,2013-04-21 03:15:00
10:35 PM,37.4,17.6,45,30.35,10.0,SE,9.2,-,N/A,,Clear,130,2013-04-21 03:35:00
10:55 PM,35.6,19.4,52,30.35,10.0,SE,9.2,-,N/A,,Clear,130,2013-04-21 03:55:00
11:15 PM,35.6,19.4,52,30.35,10.0,SE,8.1,-,N/A,,Clear,140,2013-04-21 04:15:00
11:35 PM,35.6,21.2,56,30.35,10.0,SE,9.2,-,N/A,,Clear,140,2013-04-21 04:35:00
11:55 PM,35.6,21.2,56,30.35,10.0,SE,9.2,-,N/A,,Clear,140,2013-04-21 04:55:00